KD4IZ-13 Weather Reports


time (UTC)temp
C
wind
direction
speed
KPH
gust
KPH
rain 1hr
cm
rain 24hr
cm
rain mn
cm
humidity
%
barometer
mb
20260505062824 16 174 1.6 3.2 0.00 0.00 0.00 70 1012.2
20260505062322 16 144 1.6 3.2 0.00 0.00 0.00 71 1012.0
20260505061818 16 247 4.8 4.8 0.00 0.00 0.00 70 1011.9
20260505061317 17 255 4.8 4.8 0.00 0.00 0.00 69 1011.9
20260505060814 17 284 3.2 3.2 0.00 0.00 0.00 69 1011.8
20260505060311 17 255 4.8 4.8 0.00 0.00 0.00 69 1012.0
20260505055806 17 228 3.2 3.2 0.00 0.00 0.00 69 1012.1
20260505055303 17 258 4.8 8.0 0.00 0.00 0.00 68 1012.2
20260505054800 17 271 4.8 8.0 0.00 0.00 0.00 68 1012.0
20260505054257 17 216 8.0 9.7 0.00 0.00 0.00 68 1012.1
20260505053755 17 248 6.4 9.7 0.00 0.00 0.00 68 1012.1
20260505053252 17 218 6.4 8.0 0.00 0.00 0.00 68 1011.8
20260505052749 17 237 4.8 4.8 0.00 0.00 0.00 67 1012.0
20260505052246 17 261 6.4 8.0 0.00 0.00 0.00 67 1012.2
20260505051743 17 249 4.8 8.0 0.00 0.00 0.00 68 1012.1
20260505051241 17 254 8.0 9.7 0.00 0.00 0.00 67 1011.9
20260505050738 17 221 4.8 4.8 0.00 0.00 0.00 67 1012.1
20260505050237 17 221 8.0 11.3 0.00 0.00 0.00 66 1012.2
20260505041706 17 275 4.8 4.8 0.00 0.00 0.00 65 1011.9
20260505041204 16 265 6.4 8.0 0.00 0.00 0.00 65 1011.9
20260505040701 16 235 4.8 4.8 0.00 0.00 0.00 66 1011.9
20260505040158 17 202 4.8 4.8 0.00 0.00 0.00 65 1011.9
20260505035655 17 235 6.4 9.7 0.00 0.00 0.00 64 1011.7
20260505035151 16 246 6.4 8.0 0.00 0.00 0.00 64 1011.7
20260505034647 16 254 6.4 8.0 0.00 0.00 0.00 64 1011.6
20260505034145 16 262 4.8 4.8 0.00 0.00 0.00 64 1011.9
20260505033641 16 267 6.4 11.3 0.00 0.00 0.00 63 1011.8
20260505033139 16 251 6.4 8.0 0.00 0.00 0.00 63 1011.7
20260505032637 17 275 4.8 8.0 0.00 0.00 0.00 63 1011.8
20260505032133 17 271 4.8 4.8 0.00 0.00 0.00 62 1011.7
20260505031630 17 237 8.0 9.7 0.00 0.00 0.00 62 1011.7
20260505031126 17 265 3.2 3.2 0.00 0.00 0.00 62 1011.8
20260505030624 17 240 3.2 4.8 0.00 0.00 0.00 61 1011.7
20260505030119 17 185 1.6 3.2 0.00 0.00 0.00 62 1011.9
20260505025615 17 226 3.2 3.2 0.00 0.00 0.00 61 1011.9
20260505025114 17 209 3.2 3.2 0.00 0.00 0.00 61 1012.0
20260505024611 17 223 1.6 1.6 0.00 0.00 0.00 61 1011.8
20260505024109 17 257 3.2 3.2 0.00 0.00 0.00 61 1011.8
20260505023606 17 264 3.2 3.2 0.00 0.00 0.00 60 1011.9
20260505023103 17 244 3.2 4.8 0.00 0.00 0.00 60 1012.1
20260505022600 17 188 6.4 8.0 0.00 0.00 0.00 59 1011.9
20260505022057 17 254 4.8 4.8 0.00 0.00 0.00 59 1012.0
20260505021554 17 187 4.8 8.0 0.00 0.00 0.00 58 1012.1
20260505021051 17 213 4.8 4.8 0.00 0.00 0.00 59 1011.9
20260505020550 17 262 4.8 4.8 0.00 0.00 0.00 59 1011.9
20260505020048 17 260 3.2 3.2 0.00 0.00 0.00 59 1012.1
20260505015545 17 211 4.8 4.8 0.00 0.00 0.00 59 1012.0
20260505015041 17 160 1.6 1.6 0.00 0.00 0.00 59 1012.0
20260505014538 17 175 3.2 3.2 0.00 0.00 0.00 59 1011.8
20260505014036 18 176 3.2 3.2 0.00 0.00 0.00 58 1012.1
20260505013532 17 213 1.6 1.6 0.00 0.00 0.00 59 1012.1
20260505013030 18 127 1.6 1.6 0.00 0.00 0.00 58 1011.8
20260505012528 18 106 0.0 0.0 0.00 0.00 0.00 58 1011.6
20260505012025 18 158 4.8 4.8 0.00 0.00 0.00 57 1011.7
20260505011520 18 280 3.2 4.8 0.00 0.00 0.00 57 1011.7
20260505011018 18 119 4.8 4.8 0.00 0.00 0.00 57 1011.5
20260505010513 18 247 3.2 4.8 0.00 0.00 0.00 57 1011.4
20260505010010 18 85 0.0 1.6 0.00 0.00 0.00 57 1011.3
20260505005506 18 10 1.6 3.2 0.00 0.00 0.00 58 1011.2
20260505005004 18 239 4.8 4.8 0.00 0.00 0.00 58 1011.4
20260505004501 18 190 3.2 3.2 0.00 0.00 0.00 57 1011.4
20260505003958 18 257 3.2 3.2 0.00 0.00 0.00 58 1011.3
20260505003455 18 74 0.0 1.6 0.00 0.00 0.00 57 1011.3
20260505002950 18 170 6.4 8.0 0.00 0.00 0.00 56 1011.7
20260505002447 18 72 1.6 1.6 0.00 0.00 0.00 56 1011.3
20260505001945 18 203 4.8 4.8 0.00 0.00 0.00 55 1011.3
20260505001442 19 99 0.0 1.6 0.00 0.00 0.00 54 1011.3
20260505000939 19 224 4.8 4.8 0.00 0.00 0.00 53 1011.3
20260505000437 20 120 3.2 4.8 0.00 0.00 0.00 52 1011.3
20260504235934 20 51 1.6 1.6 0.00 0.00 0.00 51 1011.2
20260504235431 20 45 0.0 1.6 0.00 0.00 0.00 49 1011.3
20260504234927 21 303 3.2 4.8 0.00 0.00 0.00 47 1011.2
20260504234425 21 192 1.6 3.2 0.00 0.00 0.00 46 1010.9
20260504233921 21 182 9.7 11.3 0.00 0.00 0.00 46 1010.9
20260504233417 21 219 8.0 11.3 0.00 0.00 0.00 46 1011.1
20260504232914 21 189 4.8 4.8 0.00 0.00 0.00 46 1010.8
20260504232411 21 288 4.8 8.0 0.00 0.00 0.00 45 1011.0
20260504231908 22 187 4.8 4.8 0.00 0.00 0.00 45 1011.1
20260504231404 22 203 6.4 8.0 0.00 0.00 0.00 45 1011.0
20260504230901 22 149 8.0 9.7 0.00 0.00 0.00 45 1011.1
20260504230358 22 226 3.2 3.2 0.00 0.00 0.00 45 1011.3
20260504225857 22 128 1.6 3.2 0.00 0.00 0.00 45 1011.0
20260504225353 21 55 1.6 1.6 0.00 0.00 0.00 46 1011.2
20260504224851 22 126 6.4 8.0 0.00 0.00 0.00 45 1011.2
20260504224347 22 159 4.8 4.8 0.00 0.00 0.00 45 1011.4
20260504223844 22 190 11.3 16.1 0.00 0.00 0.00 44 1011.4
20260504223339 22 196 8.0 9.7 0.00 0.00 0.00 45 1011.4
20260504222836 22 292 4.8 8.0 0.00 0.00 0.00 45 1011.2
20260504222333 22 214 6.4 9.7 0.00 0.00 0.00 45 1011.0
20260504221832 22 226 6.4 8.0 0.00 0.00 0.00 45 1011.1
20260504221328 22 271 8.0 12.9 0.00 0.00 0.00 44 1011.2
20260504220825 22 165 8.0 9.7 0.00 0.00 0.00 44 1011.2
20260504220322 22 263 6.4 9.7 0.00 0.00 0.00 43 1011.2
20260504215819 23 245 12.9 16.1 0.00 0.00 0.00 44 1011.1
20260504215315 22 203 9.7 11.3 0.00 0.00 0.00 43 1011.1
20260504214811 22 242 8.0 11.3 0.00 0.00 0.00 45 1010.9
20260504214309 22 261 9.7 11.3 0.00 0.00 0.00 43 1011.1
20260504213805 22 292 4.8 9.7 0.00 0.00 0.00 44 1011.1
20260504213301 22 195 14.5 20.9 0.00 0.00 0.00 43 1011.3
20260504212758 22 256 12.9 14.5 0.00 0.00 0.00 44 1011.0
20260504212254 22 186 11.3 12.9 0.00 0.00 0.00 43 1011.1
20260504211752 22 222 6.4 9.7 0.00 0.00 0.00 44 1011.1
20260504211248 22 208 16.1 22.5 0.00 0.00 0.00 43 1011.2
20260504210746 22 246 17.7 20.9 0.00 0.00 0.00 43 1011.3
20260504210243 22 237 6.4 9.7 0.00 0.00 0.00 43 1011.3
20260504205739 22 209 14.5 20.9 0.00 0.00 0.00 43 1011.2
20260504205238 22 217 8.0 11.3 0.00 0.00 0.00 45 1011.1
20260504204736 22 209 16.1 20.9 0.00 0.00 0.00 47 1011.1
20260504204234 22 227 6.4 8.0 0.00 0.00 0.00 45 1011.3
20260504203733 22 234 12.9 14.5 0.00 0.00 0.00 44 1011.1
20260504203230 22 211 16.1 24.1 0.00 0.00 0.00 45 1011.2
20260504202729 22 254 11.3 12.9 0.00 0.00 0.00 44 1011.4
20260504202227 22 216 12.9 14.5 0.00 0.00 0.00 44 1011.6
20260504201724 22 257 12.9 17.7 0.00 0.00 0.00 45 1011.6
20260504201221 22 256 11.3 12.9 0.00 0.00 0.00 44 1011.4
20260504200719 22 201 8.0 11.3 0.00 0.00 0.00 44 1011.4
20260504200214 21 252 8.0 11.3 0.00 0.00 0.00 47 1011.7
20260504195711 22 262 11.3 16.1 0.00 0.00 0.00 48 1011.7
20260504195207 22 263 16.1 20.9 0.00 0.00 0.00 43 1011.9
20260504194704 21 283 8.0 9.7 0.00 0.00 0.00 43 1011.9
20260504194200 22 255 9.7 14.5 0.00 0.00 0.00 45 1012.1
20260504193657 22 217 14.5 17.7 0.00 0.00 0.00 45 1012.2
20260504193155 21 209 12.9 14.5 0.00 0.00 0.00 44 1012.3
20260504192652 21 271 9.7 12.9 0.00 0.00 0.00 45 1012.4
20260504192150 21 243 11.3 17.7 0.00 0.00 0.00 44 1012.5
20260504191648 21 267 8.0 9.7 0.00 0.00 0.00 44 1012.4
20260504191139 21 249 16.1 17.7 0.00 0.00 0.00 45 1012.5
20260504190635 21 230 14.5 17.7 0.00 0.00 0.00 47 1012.5
20260504190132 21 254 12.9 14.5 0.00 0.00 0.00 44 1012.6
20260504185628 21 245 9.7 12.9 0.00 0.00 0.00 44 1012.9
20260504185125 21 225 19.3 22.5 0.00 0.00 0.00 46 1012.9
20260504184621 21 190 6.4 9.7 0.00 0.00 0.00 46 1012.8
20260504184116 21 275 14.5 16.1 0.00 0.00 0.00 43 1013.0
20260504183613 21 250 14.5 16.1 0.00 0.00 0.00 45 1013.1
20260504183111 21 245 11.3 14.5 0.00 0.00 0.00 45 1013.1
20260504182608 21 236 6.4 8.0 0.00 0.00 0.00 44 1013.2
20260504182105 20 182 19.3 22.5 0.00 0.00 0.00 43 1013.2
20260504181603 21 250 12.9 14.5 0.00 0.00 0.00 45 1013.2
20260504181100 21 225 22.5 27.4 0.00 0.00 0.00 44 1013.4
20260504180559 20 298 14.5 17.7 0.00 0.00 0.00 46 1013.2
20260504180058 20 258 8.0 9.7 0.00 0.00 0.00 48 1013.5
20260504175555 20 242 19.3 24.1 0.00 0.00 0.00 45 1013.2
20260504175051 20 212 9.7 12.9 0.00 0.00 0.00 46 1013.5
20260504174549 20 250 17.7 22.5 0.00 0.00 0.00 44 1013.7
20260504174046 20 230 16.1 20.9 0.00 0.00 0.00 44 1013.8
20260504173542 20 181 9.7 11.3 0.00 0.00 0.00 50 1013.6
20260504173040 20 262 8.0 12.9 0.00 0.00 0.00 45 1013.7
20260504172536 20 237 16.1 17.7 0.00 0.00 0.00 44 1013.6
20260504172033 20 240 16.1 20.9 0.00 0.00 0.00 46 1014.0
20260504171530 20 151 9.7 11.3 0.00 0.00 0.00 44 1013.9
20260504171027 20 256 12.9 14.5 0.00 0.00 0.00 45 1014.2
20260504170522 20 256 11.3 14.5 0.00 0.00 0.00 48 1014.2
20260504160443 18 229 11.3 12.9 0.00 0.00 0.00 46 1014.7
20260504150907 17 268 8.0 11.3 0.00 0.00 0.00 50 1015.4
20260504150403 17 191 6.4 8.0 0.00 0.00 0.00 48 1015.2
20260504141333 16 244 12.9 16.1 0.00 0.00 0.00 52 1015.4
20260504140829 16 277 11.3 12.9 0.00 0.00 0.00 50 1015.3
20260504140325 16 198 8.0 11.3 0.00 0.00 0.00 51 1015.5
20260504130754 13 205 6.4 9.7 0.00 0.00 0.00 63 1015.8
20260504130250 13 225 8.0 9.7 0.00 0.00 0.00 64 1015.8
20260504120214 10 233 8.0 9.7 0.00 0.00 0.00 71 1015.9
20260504110636 4 359 0.0 0.0 0.00 0.00 0.00 95 1016.1
20260504110132 4 359 0.0 0.0 0.00 0.00 0.00 97 1016.0
20260504100557 3 2 0.0 0.0 0.00 0.00 0.00 95 1016.0
20260504081951 3 3 1.6 1.6 0.00 0.00 0.00 95 1016.6
20260504081448 2 342 0.0 1.6 0.00 0.00 0.00 96 1016.7
20260504080944 2 342 0.0 0.0 0.00 0.00 0.00 95 1016.5
20260504080441 3 342 0.0 0.0 0.00 0.00 0.00 96 1016.3
20260504070409 2 342 0.0 0.0 0.00 0.00 0.00 94 1016.6